Location: Castiglione Fibocchi
(43.5333°N, 11.7667°E)
Time: 17:21:22
(UTC+00:00)

S3M - Pass Details

Date: 15 August 2020
Orbit: 948 x 1005 km, 83.0° (Epoch: 17 September)

Event Time Altitude Azimuth Distance (km) Brightness Sun altitude
Exits shadow 02:45:34 15° 198° (SSW) 2,402 5.6 -15.5°
Maximum altitude 02:50:54 69° 280° (W) 1,072 4.1 -14.7°
Drops below altitude 10° 02:57:18 10° 3° (N) 2,783 6.9 -13.8°
Sets 02:59:51 0° 6° (N) 3,731 7.7 -13.4°
